Regional Weather Roundup
Issued by NWS

Home | Current Version | Previous Version | Text Only | Print | Product List | Glossary On
Versions: 1 2 3 4 5 6 7 8 9 10 11 12 13 14 15 16 17 18 19 20 21 22 23 24 25 26 27
000
ASUS45 KSLC 261910
RWRUT

UTAH REGIONAL WEATHER ROUNDUP
NATIONAL WEATHER SERVICE SALT LAKE CITY UT
100 PM MDT WED JUL 26 2017

UTZ001>011-023>025-262000-

NORTHERN UTAH

CITY           SKY/WX    TMP DP  RH WIND       PRES   REMARKS
BRIGHAM CITY   MOSUNNY   80  54  40 W3        30.21F
HILL AFB       MOSUNNY   84  57  39 VRB2      30.24S
LOGAN          MOSUNNY   77  63  61 CALM      30.23F
OGDEN          SUNNY     78  57  48 W6        30.21F
SALT LAKE CITY MOSUNNY   83  61  47 N3        30.19F
TOOELE VALLEY  MOSUNNY   81  61  50 N15       30.21S
WENDOVER       SUNNY     82  56  40 E8        30.19F
HEBER CITY     MOSUNNY   81  52  36 W8        30.26S
WEST JORDAN    PTSUNNY   79  65  61 CALM      30.23R

$$

UTZ011>015-024>027-262000-

CENTRAL/NORTHEAST UTAH

CITY           SKY/WX    TMP DP  RH WIND       PRES   REMARKS
PROVO AIRPORT  NOT AVBL
MOAB/CANYONLAN MOSUNNY   82  64  54 CALM      30.19F
DELTA          SUNNY     81  55  41 SW6       30.23S
PRICE          MOSUNNY   77  59  53 VRB7      30.29F
ROOSEVELT      MOSUNNY   79  59  50 E6        30.26F
VERNAL         CLOUDY    81  62  52 E5        30.24F

$$

UTZ013>016-019>022-027-262000-

SOUTHERN UTAH

CITY           SKY/WX    TMP DP  RH WIND       PRES   REMARKS
BRYCE CANYON   PTSUNNY   73  58  59 SE13      30.43S
CEDAR CITY     SUNNY     79  57  46 NW6       30.28F
MILFORD        SUNNY     84  54  35 S8G16     30.23F
ST GEORGE      PTCLDY    86  64  47 CALM      30.13F
HANKSVILLE     MOSUNNY   82  59  44 E3        30.22F
BLANDING       SUNNY     78  54  43 CALM      30.37F

$$

REGIONAL REPORTS     COLORADO/ARIZONA

CITY           SKY/WX    TMP DP  RH WIND       PRES   REMARKS
CRAIG, CO      CLOUDY    76  54  46 CALM      30.30F
GRAND JUNCTION SUNNY     82  63  52 VRB5      30.22F
RIFLE, CO      CLOUDY    76  64  66 VRB5      30.28F
MONTROSE, CO   MOSUNNY   79  58  48 NW3       30.28F
CORTEZ, CO     MOSUNNY   81  57  43 VRB6      30.30S
COLORADO CITY    N/A     82  63  51 CALM      30.29F
PAGE, AZ       NOT AVBL
GRAND CANYON   SUNNY     75  53  46 W7        30.39S
KINGMAN, AZ    SUNNY     89  60  37 W5        30.16F
FLAGSTAFF, AZ  MOSUNNY   74  51  44 VRB7      30.40F

$$

REGIONAL REPORTS    NEVADA/IDAHO/WYOMING

CITY           SKY/WX    TMP DP  RH WIND       PRES   REMARKS
LAS VEGAS, NV  MOSUNNY   89  65  44 SE6       30.07F HX  91
ELY, NY        SUNNY     77  50  38 MISG      30.31F
ELKO, NV       SUNNY     84  45  25 VRB5      30.21F
POCATELLO, ID  MOSUNNY   79  59  50 E8        30.22F
BURLEY, ID     SUNNY     81  55  40 E5        30.16F
FORT BRIDGER,  CLOUDY    72  51  47 W3        30.39R
EVANSTON, WY   LGT RAIN  67  55  65 W12       30.37S
ROCK SPRINGS,  CLOUDY    74  50  42 VRB3      30.33F
KEMMERER, WY     N/A     63  55  77 CALM      30.39F

$$




USA.gov is the U.S. government's official web portal to all federal, state and local government web resources and services.